GW5874 Weather Reports


Display with metric or nautical units.
time (UTC)temp
F
wind
direction
speed
MPH
gust
MPH
rain 1hr
in
rain 24hr
in
rain mn
in
humidity
%
barometer
mb
20260902203122 102 153 5.0 7.0 0.00 0.00 0.00 34 1014.4
20260902202617 102 179 7.0 10.0 0.00 0.00 0.00 35 1014.3
20260902202114 101 201 2.0 3.0 0.00 0.00 0.00 33 1014.4
20260902201609 101 164 4.0 7.0 0.00 0.00 0.00 34 1014.3
20260902201108 99 258 3.0 4.0 0.00 0.00 0.00 35 1014.6
20260902200604 99 193 5.0 8.0 0.00 0.00 0.00 37 1014.5
20260902200059 99 251 0.0 0.0 0.00 0.00 0.00 37 1014.7
20260902195555 99 229 0.0 0.0 0.00 0.00 0.00 37 1014.7
20260902195054 99 170 4.0 5.0 0.00 0.00 0.00 37 1015.0
20260902194553 99 181 4.0 10.0 0.00 0.00 0.00 37 1015.2
20260902194049 100 163 6.0 8.0 0.00 0.00 0.00 37 1014.9
20260902193545 100 20 3.0 4.0 0.00 0.00 0.00 36 1015.0
20260902193044 100 166 9.0 11.0 0.00 0.00 0.00 36 1015.1
20260902192543 98 260 3.0 4.0 0.00 0.00 0.00 39 1015.1
20260902192042 100 219 4.0 5.0 0.00 0.00 0.00 36 1015.2
20260902191537 99 201 3.0 7.0 0.00 0.00 0.00 37 1015.4
20260902191032 100 226 5.0 5.0 0.00 0.00 0.00 36 1015.3
20260902190528 99 202 5.0 7.0 0.00 0.00 0.00 38 1015.6
20260902190023 98 207 3.0 4.0 0.00 0.00 0.00 38 1015.6
20260902185519 98 208 4.0 5.0 0.00 0.00 0.00 38 1015.7
20260902185014 98 240 2.0 4.0 0.00 0.00 0.00 38 1015.6
20260902184509 99 183 6.0 8.0 0.00 0.00 0.00 36 1015.8
20260902184004 99 244 4.0 5.0 0.00 0.00 0.00 37 1016.1
20260902183501 98 142 4.0 5.0 0.00 0.00 0.00 38 1015.9
20260902182957 97 212 2.0 3.0 0.00 0.00 0.00 39 1015.9
20260902182452 97 148 6.0 8.0 0.00 0.00 0.00 40 1016.4
20260902181948 97 99 6.0 8.0 0.00 0.00 0.00 40 1016.2
20260902181444 97 163 5.0 7.0 0.00 0.00 0.00 39 1016.3
20260902180938 99 206 6.0 7.0 0.00 0.00 0.00 39 1016.4
20260902180434 99 280 2.0 3.0 0.00 0.00 0.00 39 1016.5
20260902175930 99 159 3.0 4.0 0.00 0.00 0.00 38 1016.5
20260902175424 99 243 3.0 4.0 0.00 0.00 0.00 38 1016.7
20260902174920 97 278 3.0 4.0 0.00 0.00 0.00 40 1016.6
20260902174417 98 231 3.0 4.0 0.00 0.00 0.00 39 1016.8
20260902173912 97 302 2.0 3.0 0.00 0.00 0.00 40 1016.8
20260902173411 96 188 3.0 4.0 0.00 0.00 0.00 42 1017.0
20260902172906 96 238 4.0 5.0 0.00 0.00 0.00 42 1017.1
20260902172406 97 205 4.0 4.0 0.00 0.00 0.00 42 1017.1
20260902171901 97 211 5.0 5.0 0.00 0.00 0.00 42 1017.1
20260902171356 96 243 2.0 3.0 0.00 0.00 0.00 44 1017.3
20260902170852 96 199 1.0 1.0 0.00 0.00 0.00 44 1017.6
20260902170347 96 331 2.0 3.0 0.00 0.00 0.00 43 1017.3
20260902165843 96 205 2.0 3.0 0.00 0.00 0.00 44 1017.4
20260902165342 96 203 4.0 5.0 0.00 0.00 0.00 44 1017.6
20260902164842 95 258 1.0 1.0 0.00 0.00 0.00 44 1017.6
20260902164337 95 189 7.0 8.0 0.00 0.00 0.00 44 1017.6
20260902163836 96 235 2.0 3.0 0.00 0.00 0.00 46 1017.8
20260902163331 94 262 1.0 1.0 0.00 0.00 0.00 47 1017.7
20260902162830 93 182 4.0 5.0 0.00 0.00 0.00 48 1017.7
20260902162325 93 129 2.0 4.0 0.00 0.00 0.00 49 1017.8
20260902161824 93 197 2.0 3.0 0.00 0.00 0.00 49 1018.0
20260902161320 92 170 7.0 8.0 0.00 0.00 0.00 50 1017.9
20260902160816 93 234 6.0 8.0 0.00 0.00 0.00 48 1017.9
20260902160311 93 236 3.0 4.0 0.00 0.00 0.00 49 1017.9
20260902155809 91 111 5.0 7.0 0.00 0.00 0.00 51 1017.9
20260902155308 90 250 5.0 5.0 0.00 0.00 0.00 52 1017.9
20260902154803 91 201 8.0 8.0 0.00 0.00 0.00 53 1017.9
20260902154259 91 207 7.0 11.0 0.00 0.00 0.00 53 1017.9
20260902153758 91 225 6.0 8.0 0.00 0.00 0.00 52 1018.1
20260902153252 91 138 4.0 5.0 0.00 0.00 0.00 54 1017.8
20260902152748 91 180 2.0 5.0 0.00 0.00 0.00 54 1018.0
20260902152245 89 192 3.0 4.0 0.00 0.00 0.00 56 1018.2
20260902151744 87 280 1.0 1.0 0.00 0.00 0.00 59 1018.0
20260902151240 87 178 4.0 4.0 0.00 0.00 0.00 59 1018.2
20260902150734 88 179 2.0 3.0 0.00 0.00 0.00 59 1018.0
20260902150231 88 257 0.0 1.0 0.00 0.00 0.00 58 1017.9
20260902145724 88 257 2.0 3.0 0.00 0.00 0.00 58 1017.9
20260902145219 86 286 3.0 4.0 0.00 0.00 0.00 61 1018.0
20260902144715 86 209 2.0 3.0 0.00 0.00 0.00 62 1017.9
20260902144210 85 240 3.0 4.0 0.00 0.00 0.00 63 1018.0
20260902143706 84 170 3.0 4.0 0.00 0.00 0.00 64 1018.1
20260902143201 83 123 4.0 4.0 0.00 0.00 0.00 65 1018.1
20260902142656 83 208 2.0 3.0 0.00 0.00 0.00 68 1018.1
20260902142152 83 190 2.0 3.0 0.00 0.00 0.00 69 1018.2
20260902141651 83 205 0.0 0.0 0.00 0.00 0.00 68 1018.1
20260902141147 82 229 0.0 0.0 0.00 0.00 0.00 69 1018.0
20260902140643 82 228 0.0 0.0 0.00 0.00 0.00 68 1018.1
20260902140142 82 231 0.0 0.0 0.00 0.00 0.00 70 1018.2
20260902135642 81 258 0.0 0.0 0.00 0.00 0.00 71 1018.2
20260902135137 79 284 0.0 0.0 0.00 0.00 0.00 76 1018.1
20260902134633 79 278 0.0 0.0 0.00 0.00 0.00 77 1018.0
20260902134132 78 258 0.0 0.0 0.00 0.00 0.00 78 1018.0
20260902133627 77 231 0.0 0.0 0.00 0.00 0.00 79 1017.8
20260902133122 77 253 0.0 0.0 0.00 0.00 0.00 81 1017.9
20260902132617 77 215 0.0 0.0 0.00 0.00 0.00 81 1018.0
20260902132112 76 256 0.0 0.0 0.00 0.00 0.00 81 1018.0
20260902131608 76 256 0.0 0.0 0.00 0.00 0.00 82 1018.0
20260902131103 76 257 0.0 0.0 0.00 0.00 0.00 82 1018.0
20260902130559 75 255 0.0 0.0 0.00 0.00 0.00 82 1017.9
20260902130054 75 278 0.0 0.0 0.00 0.00 0.00 83 1018.0
20260902125550 75 256 0.0 0.0 0.00 0.00 0.00 84 1017.8
20260902125045 75 211 0.0 0.0 0.00 0.00 0.00 83 1017.7
20260902124542 75 270 0.0 0.0 0.00 0.00 0.00 85 1017.7
20260902124042 74 271 0.0 0.0 0.00 0.00 0.00 88 1017.8
20260902123538 73 280 0.0 0.0 0.00 0.00 0.00 90 1017.6
20260902123038 72 281 0.0 0.0 0.00 0.00 0.00 90 1017.7
20260902122532 71 269 0.0 0.0 0.00 0.00 0.00 92 1017.6
20260902122028 71 279 0.0 0.0 0.00 0.00 0.00 92 1017.5
20260902121527 70 242 0.0 0.0 0.00 0.00 0.00 92 1017.5
20260902121022 70 246 0.0 0.0 0.00 0.00 0.00 92 1017.6
20260902120519 70 278 0.0 0.0 0.00 0.00 0.00 92 1017.5
20260902120015 70 261 0.0 0.0 0.00 0.00 0.00 92 1017.5
20260902115509 70 288 0.0 0.0 0.00 0.00 0.00 92 1017.1
20260902115006 70 283 0.0 0.0 0.00 0.00 0.00 92 1017.3
20260902114501 70 274 0.0 0.0 0.00 0.00 0.00 92 1017.1
20260902113956 70 286 0.0 0.0 0.00 0.00 0.00 92 1017.2
20260902113452 70 260 0.0 0.0 0.00 0.00 0.00 92 1017.2
20260902112951 70 297 0.0 0.0 0.00 0.00 0.00 92 1017.3
20260902112447 70 271 0.0 0.0 0.00 0.00 0.00 92 1017.0
20260902111943 70 279 0.0 0.0 0.00 0.00 0.00 91 1017.2
20260902111440 70 279 0.0 0.0 0.00 0.00 0.00 91 1016.8
20260902110935 70 279 0.0 0.0 0.00 0.00 0.00 91 1017.2
20260902110431 70 269 0.0 0.0 0.00 0.00 0.00 91 1017.2
20260902105931 70 257 0.0 0.0 0.00 0.00 0.00 91 1016.7
20260902105426 71 267 0.0 0.0 0.00 0.00 0.00 91 1016.9
20260902104921 71 276 0.0 0.0 0.00 0.00 0.00 90 1016.7
20260902104417 71 280 0.0 0.0 0.00 0.00 0.00 90 1016.9
20260902103916 71 282 0.0 0.0 0.00 0.00 0.00 90 1017.0
20260902103411 71 280 0.0 0.0 0.00 0.00 0.00 90 1017.0
20260902102907 71 249 0.0 0.0 0.00 0.00 0.00 89 1016.9
20260902102404 71 249 0.0 0.0 0.00 0.00 0.00 89 1016.9
20260902101900 71 247 0.0 0.0 0.00 0.00 0.00 88 1016.8
20260902101354 71 282 0.0 0.0 0.00 0.00 0.00 88 1017.0
20260902100854 72 291 0.0 0.0 0.00 0.00 0.00 88 1016.8
20260902100353 72 280 0.0 0.0 0.00 0.00 0.00 87 1016.7
20260902095848 72 271 0.0 0.0 0.00 0.00 0.00 87 1016.8
20260902095343 72 277 0.0 0.0 0.00 0.00 0.00 86 1016.7
20260902094842 72 278 0.0 0.0 0.00 0.00 0.00 86 1016.6
20260902094339 73 241 0.0 0.0 0.00 0.00 0.00 85 1016.6
20260902093838 74 238 0.0 0.0 0.00 0.00 0.00 82 1016.7
20260902093333 74 292 0.0 0.0 0.00 0.00 0.00 82 1016.7
20260902092833 74 285 0.0 0.0 0.00 0.00 0.00 82 1016.7
20260902092329 73 297 0.0 0.0 0.00 0.00 0.00 82 1016.6
20260902091828 74 276 0.0 0.0 0.00 0.00 0.00 82 1016.4
20260902091324 73 255 0.0 0.0 0.00 0.00 0.00 84 1016.4
20260902090821 73 289 0.0 0.0 0.00 0.00 0.00 85 1016.4
20260902090320 73 242 0.0 0.0 0.00 0.00 0.00 84 1016.5
20260902085819 73 271 0.0 0.0 0.00 0.00 0.00 85 1016.3
20260902085314 72 262 0.0 0.0 0.00 0.00 0.00 87 1016.4
20260902084810 72 243 0.0 0.0 0.00 0.00 0.00 86 1016.5
20260902084307 73 276 0.0 0.0 0.00 0.00 0.00 85 1016.4
20260902083801 73 273 0.0 0.0 0.00 0.00 0.00 85 1016.4
20260902083255 73 260 0.0 0.0 0.00 0.00 0.00 84 1016.7
20260902082750 73 262 0.0 0.0 0.00 0.00 0.00 83 1016.3
20260902082247 73 285 0.0 0.0 0.00 0.00 0.00 83 1016.5
20260902081743 73 277 0.0 0.0 0.00 0.00 0.00 83 1016.2
20260902081238 74 261 0.0 0.0 0.00 0.00 0.00 82 1016.5
20260902080733 74 257 0.0 0.0 0.00 0.00 0.00 81 1016.5
20260902080231 75 271 0.0 0.0 0.00 0.00 0.00 80 1016.3
20260902075729 75 261 0.0 0.0 0.00 0.00 0.00 79 1016.4
20260902075226 76 271 0.0 0.0 0.00 0.00 0.00 76 1016.7
20260902074725 77 267 0.0 0.0 0.00 0.00 0.00 74 1016.4
20260902074221 78 254 0.0 0.0 0.00 0.00 0.00 73 1016.3
20260902073716 78 238 0.0 0.0 0.00 0.00 0.00 72 1016.3
20260902073212 79 243 0.0 0.0 0.00 0.00 0.00 70 1016.4
20260902072708 78 254 0.0 0.0 0.00 0.00 0.00 70 1016.4
20260902072204 79 258 0.0 0.0 0.00 0.00 0.00 70 1016.2
20260902071700 78 248 0.0 0.0 0.00 0.00 0.00 70 1016.4
20260902071155 78 305 0.0 0.0 0.00 0.00 0.00 70 1016.4
20260902070651 79 260 0.0 0.0 0.00 0.00 0.00 70 1016.3
20260902070151 79 242 0.0 0.0 0.00 0.00 0.00 70 1016.6
20260902065649 79 191 0.0 0.0 0.00 0.00 0.00 69 1016.6
20260902065145 79 219 0.0 0.0 0.00 0.00 0.00 69 1016.4
20260902064641 79 115 0.0 0.0 0.00 0.00 0.00 69 1016.5
20260902064136 79 234 0.0 0.0 0.00 0.00 0.00 70 1016.4
20260902063632 78 265 0.0 0.0 0.00 0.00 0.00 70 1016.3
20260902063126 78 188 0.0 0.0 0.00 0.00 0.00 70 1016.4
20260902062625 79 251 0.0 0.0 0.00 0.00 0.00 69 1016.5
20260902062120 79 236 0.0 0.0 0.00 0.00 0.00 68 1016.3
20260902061620 77 228 0.0 0.0 0.00 0.00 0.00 71 1016.5
20260902061116 77 277 0.0 0.0 0.00 0.00 0.00 74 1016.4
20260902060612 78 208 0.0 0.0 0.00 0.00 0.00 72 1016.3
20260902060108 77 141 0.0 0.0 0.00 0.00 0.00 73 1016.4
20260902055604 76 224 0.0 0.0 0.00 0.00 0.00 74 1016.1
20260902055059 76 240 0.0 0.0 0.00 0.00 0.00 74 1016.3
20260902054554 76 290 0.0 0.0 0.00 0.00 0.00 74 1016.1
20260902054050 75 235 0.0 0.0 0.00 0.00 0.00 75 1016.5
20260902053545 75 267 0.0 0.0 0.00 0.00 0.00 78 1016.4
20260902053044 74 256 0.0 0.0 0.00 0.00 0.00 79 1016.2
20260902052539 73 263 0.0 0.0 0.00 0.00 0.00 82 1016.4
20260902052035 73 282 0.0 0.0 0.00 0.00 0.00 83 1016.2
20260902051534 73 246 0.0 0.0 0.00 0.00 0.00 83 1016.3
20260902051033 73 248 0.0 0.0 0.00 0.00 0.00 84 1016.2
20260902050528 73 264 0.0 0.0 0.00 0.00 0.00 84 1016.4
20260902050024 73 272 0.0 0.0 0.00 0.00 0.00 84 1016.3
20260902045519 73 265 0.0 0.0 0.00 0.00 0.00 83 1016.3
20260902045015 73 268 0.0 0.0 0.00 0.00 0.00 83 1016.3
20260902044509 73 276 0.0 0.0 0.00 0.00 0.00 83 1016.1
20260902044005 73 273 0.0 0.0 0.00 0.00 0.00 82 1016.2
20260902043500 73 273 0.0 0.0 0.00 0.00 0.00 82 1015.9
20260902042955 73 260 0.0 0.0 0.00 0.00 0.00 82 1016.1
20260902042455 73 243 0.0 0.0 0.00 0.00 0.00 82 1015.9
20260902041950 73 251 0.0 0.0 0.00 0.00 0.00 81 1016.2
20260902041445 73 268 0.0 0.0 0.00 0.00 0.00 82 1016.2
20260902040945 73 265 0.0 0.0 0.00 0.00 0.00 82 1016.1
20260902040439 74 275 0.0 0.0 0.00 0.00 0.00 81 1015.9
20260902035938 73 279 0.0 0.0 0.00 0.00 0.00 81 1016.1
20260902035433 73 264 0.0 0.0 0.00 0.00 0.00 81 1015.8
20260902034933 74 268 0.0 0.0 0.00 0.00 0.00 81 1016.1
20260902034427 74 268 0.0 0.0 0.00 0.00 0.00 81 1016.2
20260902033927 74 268 0.0 0.0 0.00 0.00 0.00 81 1015.8
20260902033426 74 272 0.0 0.0 0.00 0.00 0.00 81 1016.2
20260902032926 74 274 0.0 0.0 0.00 0.00 0.00 81 1015.8
20260902032426 74 290 0.0 0.0 0.00 0.00 0.00 81 1015.9
20260902031920 74 269 0.0 0.0 0.00 0.00 0.00 80 1015.8
20260902031416 75 270 0.0 0.0 0.00 0.00 0.00 80 1015.7
20260902030912 75 264 0.0 0.0 0.00 0.00 0.00 80 1015.6
20260902030406 75 278 0.0 0.0 0.00 0.00 0.00 80 1015.6
20260902025905 75 271 0.0 0.0 0.00 0.00 0.00 79 1015.5
20260902025402 75 263 0.0 0.0 0.00 0.00 0.00 78 1015.5
20260902024901 75 268 0.0 0.0 0.00 0.00 0.00 78 1015.4
20260902024357 75 274 0.0 0.0 0.00 0.00 0.00 78 1015.2
20260902023852 76 281 0.0 0.0 0.00 0.00 0.00 78 1015.1
20260902023348 76 277 0.0 0.0 0.00 0.00 0.00 78 1015.2
20260902022847 76 264 0.0 0.0 0.00 0.00 0.00 77 1015.2
20260902022342 76 277 0.0 0.0 0.00 0.00 0.00 76 1014.9
20260902021838 76 269 0.0 0.0 0.00 0.00 0.00 77 1015.0
20260902021332 77 261 0.0 0.0 0.00 0.00 0.00 76 1014.9
20260902020828 77 272 0.0 0.0 0.00 0.00 0.00 75 1014.9
20260902020324 77 266 0.0 0.0 0.00 0.00 0.00 75 1014.6
20260902015820 78 272 0.0 0.0 0.00 0.00 0.00 74 1014.5
20260902015315 78 273 0.0 0.0 0.00 0.00 0.00 74 1014.6
20260902014811 78 273 0.0 0.0 0.00 0.00 0.00 73 1014.5
20260902014308 79 232 0.0 0.0 0.00 0.00 0.00 72 1014.3
20260902013806 79 271 0.0 0.0 0.00 0.00 0.00 72 1014.4
20260902013301 80 266 0.0 0.0 0.00 0.00 0.00 71 1014.3
20260902012757 80 268 0.0 0.0 0.00 0.00 0.00 70 1014.2
20260902012253 80 279 0.0 0.0 0.00 0.00 0.00 70 1014.2
20260902011748 81 271 0.0 0.0 0.00 0.00 0.00 69 1014.4
20260902011248 81 273 0.0 0.0 0.00 0.00 0.00 69 1014.3
20260902010747 82 278 0.0 0.0 0.00 0.00 0.00 68 1014.3
20260902010243 82 266 0.0 0.0 0.00 0.00 0.00 67 1014.3
20260902005741 83 271 0.0 0.0 0.00 0.00 0.00 66 1014.4
20260902005237 83 279 0.0 0.0 0.00 0.00 0.00 65 1014.3
20260902004737 84 252 0.0 0.0 0.00 0.00 0.00 64 1014.1
20260902004232 85 256 0.0 0.0 0.00 0.00 0.00 62 1014.4
20260902003727 85 285 0.0 0.0 0.00 0.00 0.00 60 1014.4
20260902003222 86 259 0.0 0.0 0.00 0.00 0.00 60 1014.5
20260902002718 87 216 0.0 0.0 0.00 0.00 0.00 59 1014.2
20260902002218 87 274 0.0 0.0 0.00 0.00 0.00 56 1014.4
20260902001713 89 254 0.0 0.0 0.00 0.00 0.00 57 1014.3
20260902001213 89 264 0.0 0.0 0.00 0.00 0.00 52 1014.5
20260902000708 90 256 0.0 0.0 0.00 0.00 0.00 51 1014.5
20260902000204 90 276 0.0 0.0 0.00 0.00 0.00 49 1014.5
20260901235703 92 253 0.0 0.0 0.00 0.00 0.00 47 1014.6
20260901235158 93 266 0.0 0.0 0.00 0.00 0.00 45 1014.6
20260901234657 94 263 0.0 1.0 0.00 0.00 0.00 43 1014.5
20260901234152 94 265 0.0 0.0 0.00 0.00 0.00 44 1014.6
20260901233647 93 253 0.0 0.0 0.00 0.00 0.00 42 1014.5
20260901233143 94 249 0.0 0.0 0.00 0.00 0.00 42 1014.7
20260901232638 94 218 1.0 1.0 0.00 0.00 0.00 42 1014.8
20260901232133 94 247 0.0 1.0 0.00 0.00 0.00 41 1014.9
20260901231630 94 259 0.0 0.0 0.00 0.00 0.00 42 1014.7
20260901231126 93 242 0.0 1.0 0.00 0.00 0.00 42 1014.7
20260901230622 96 147 2.0 3.0 0.00 0.00 0.00 46 1014.7
20260901230121 96 243 0.0 1.0 0.00 0.00 0.00 38 1014.8
20260901225616 96 237 0.0 1.0 0.00 0.00 0.00 37 1014.8
20260901225116 97 211 1.0 1.0 0.00 0.00 0.00 37 1014.7
20260901224612 98 227 0.0 1.0 0.00 0.00 0.00 35 1014.6
20260901224108 99 272 1.0 1.0 0.00 0.00 0.00 34 1014.4
20260901223603 101 232 1.0 3.0 0.00 0.00 0.00 33 1014.7
20260901223104 101 268 2.0 4.0 0.00 0.00 0.00 33 1014.6
20260901222600 100 211 2.0 4.0 0.00 0.00 0.00 33 1014.5
20260901222055 101 237 2.0 4.0 0.00 0.00 0.00 33 1014.5
20260901221552 101 61 2.0 3.0 0.00 0.00 0.00 33 1014.4
20260901221047 101 207 3.0 4.0 0.00 0.00 0.00 31 1014.5
20260901220546 101 213 4.0 4.0 0.00 0.00 0.00 31 1014.6
20260901220045 101 219 3.0 5.0 0.00 0.00 0.00 32 1014.7
20260901215543 100 272 2.0 3.0 0.00 0.00 0.00 34 1014.7
20260901215038 98 270 1.0 3.0 0.00 0.00 0.00 35 1014.6
20260901214537 98 169 0.0 1.0 0.00 0.00 0.00 35 1014.8
20260901214032 100 111 6.0 8.0 0.00 0.00 0.00 34 1014.6
20260901213532 100 120 4.0 5.0 0.00 0.00 0.00 33 1014.7
20260901213032 103 232 5.0 7.0 0.00 0.00 0.00 31 1014.7
20260901212531 101 226 0.0 0.0 0.00 0.00 0.00 32 1014.9
20260901212028 101 166 0.0 1.0 0.00 0.00 0.00 31 1014.8
20260901211523 101 209 6.0 8.0 0.00 0.00 0.00 32 1014.9
20260901211020 101 201 3.0 4.0 0.00 0.00 0.00 32 1015.0
20260901210515 101 207 5.0 5.0 0.00 0.00 0.00 31 1014.8
20260901210011 103 185 5.0 7.0 0.00 0.00 0.00 32 1015.2
20260901205506 102 284 2.0 3.0 0.00 0.00 0.00 32 1015.3
20260901205000 100 218 6.0 7.0 0.00 0.00 0.00 33 1015.2
20260901204457 99 251 0.0 0.0 0.00 0.00 0.00 34 1015.3
20260901203956 98 241 2.0 3.0 0.00 0.00 0.00 37 1015.4